This is the latest recevied weather packets stored in our database for station/object KM4KBD. If no packets are shown the sender has not sent any weather packets the latest 10 day(s).
| Time | Temp. | Humidity | Pressure | Rain* | Wind** | Luminosity | Snow |
|---|---|---|---|---|---|---|---|
| 1777415905 | 22.78° C | 73% | 1020 hPa | 0 mm | - | 54 W/m² | - |
| 1777415601 | 23.33° C | 74% | 1019.7 hPa | 0 mm | - | 56 W/m² | - |
| 1777415297 | 23.89° C | 72% | 1019.5 hPa | 0 mm | - | 86 W/m² | - |
| 1777414992 | 23.89° C | 72% | 1019.4 hPa | 0 mm | - | 134 W/m² | - |
| 1777414692 | 23.89° C | 72% | 1019.2 hPa | 0 mm | - | 121 W/m² | - |
| 1777414388 | 23.89° C | 71% | 1019.1 hPa | 0 mm | - | 267 W/m² | - |
| 1777414087 | 23.89° C | 71% | 1019.3 hPa | 0 mm | - | 108 W/m² | - |
| 1777413782 | 23.89° C | 69% | 1019.1 hPa | 0 mm | - | 147 W/m² | - |
| 1777413477 | 24.44° C | 70% | 1019.3 hPa | 0 mm | - | 335 W/m² | - |
| 1777413174 | 24.44° C | 68% | 1019 hPa | 0 mm | - | 213 W/m² | - |
| 1777412874 | 23.89° C | 70% | 1019.3 hPa | 0 mm | - | 159 W/m² | - |
| 1777412569 | 24.44° C | 68% | 1019.4 hPa | 0 mm | - | 315 W/m² | - |
| 1777412266 | 24.44° C | 69% | 1019.9 hPa | 0 mm | - | 355 W/m² | - |
| 1777411963 | 24.44° C | 70% | 1020 hPa | 0 mm | - | 272 W/m² | - |
| 1777411662 | 24.44° C | 71% | 1020.1 hPa | 0 mm | - | 315 W/m² | - |
| 1777411357 | 23.89° C | 71% | 1020 hPa | 0 mm | - | 432 W/m² | - |
| 1777411056 | 23.89° C | 70% | 1020.2 hPa | 0 mm | - | 207 W/m² | - |
| 1777410751 | 23.89° C | 71% | 1020.1 hPa | 0 mm | - | 455 W/m² | - |
| 1777410450 | 23.89° C | 72% | 1020.2 hPa | 0 mm | - | 128 W/m² | - |
| 1777410149 | 23.89° C | 69% | 1020.4 hPa | 0 mm | - | 224 W/m² | - |
| 1777409844 | 23.89° C | 71% | 1020.4 hPa | 0 mm | - | 210 W/m² | - |
| 1777409540 | 23.33° C | 73% | 1020.5 hPa | 0 mm | - | 524 W/m² | - |
| 1777409236 | 22.78° C | 73% | 1020.7 hPa | 0 mm | - | 175 W/m² | - |
| 1777408932 | 23.33° C | 72% | 1020.9 hPa | 0 mm | - | 127 W/m² | - |
| 1777408629 | 23.33° C | 70% | 1020.8 hPa | 0 mm | - | 143 W/m² | - |
* Rain latest hour (hover to see other rain measurements)
** Current wind speed in m/s (hover to see current wind gust speed)